station,date_time,longitude_east,latitude_north,depth,sw_sal,sw_sal_result_value_qualifier,sea_water_temperature,sea_water_temperature_result_value_qualifier,sea_water_pressure,sea_water_pressure_result_value_qualifier,KD_PAR,KD_PAR_result_value_qualifier
CH4-2,2017-01-26T03:30:00Z,-79.31,54.13,10,14.53,,-0.64,,, NC,, NC
CH4-2,2017-01-26T03:40:00Z,-79.31,54.13,10,14.57,,-0.65,,, NC,, NC
CH4-2,2017-01-26T03:50:00Z,-79.31,54.13,10,14.49,,-0.65,,, NC,, NC
CH4-2,2017-01-26T04:00:00Z,-79.31,54.13,10,14.58,,-0.65,,, NC,, NC
CH4-2,2017-01-26T04:10:00Z,-79.31,54.13,10,14.58,,-0.65,,, NC,, NC
CH4-2,2017-01-26T04:20:00Z,-79.31,54.13,10,14.58,,-0.65,,, NC,, NC
CH4-2,2017-01-26T04:30:00Z,-79.31,54.13,10,14.58,,-0.65,,, NC,, NC
CH4-2,2017-01-26T04:40:00Z,-79.31,54.13,10,14.54,,-0.65,,, NC,, NC
CH4-2,2017-01-26T04:50:00Z,-79.31,54.13,10,14.50,,-0.65,,, NC,, NC
CH4-2,2017-01-26T05:00:00Z,-79.31,54.13,10,14.49,,-0.65,,, NC,, NC
CH4-2,2017-01-26T05:10:00Z,-79.31,54.13,10,14.52,,-0.65,,, NC,, NC
CH4-2,2017-01-26T05:20:00Z,-79.31,54.13,10,14.48,,-0.64,,, NC,, NC
CH4-2,2017-01-26T05:30:00Z,-79.31,54.13,10,14.47,,-0.64,,, NC,, NC
CH4-2,2017-01-26T05:40:00Z,-79.31,54.13,10,14.47,,-0.64,,, NC,, NC
CH4-2,2017-01-26T05:50:00Z,-79.31,54.13,10,14.48,,-0.64,,, NC,, NC
CH4-2,2017-01-26T06:00:00Z,-79.31,54.13,10,14.49,,-0.64,,, NC,, NC
CH4-2,2017-01-26T06:10:00Z,-79.31,54.13,10,14.50,,-0.64,,, NC,, NC
CH4-2,2017-01-26T06:20:00Z,-79.31,54.13,10,14.51,,-0.64,,, NC,, NC
CH4-2,2017-01-26T06:30:00Z,-79.31,54.13,10,14.45,,-0.64,,, NC,, NC
CH4-2,2017-01-26T06:40:00Z,-79.31,54.13,10,14.45,,-0.64,,, NC,, NC
CH4-2,2017-01-26T06:50:00Z,-79.31,54.13,10,14.49,,-0.64,,, NC,, NC
CH4-2,2017-01-26T07:00:00Z,-79.31,54.13,10,14.41,,-0.64,,, NC,, NC
CH4-2,2017-01-26T07:10:00Z,-79.31,54.13,10,14.40,,-0.64,,, NC,, NC
CH4-2,2017-01-26T07:20:00Z,-79.31,54.13,10,14.34,,-0.63,,, NC,, NC
CH4-2,2017-01-26T07:30:00Z,-79.31,54.13,10,14.36,,-0.63,,, NC,, NC
CH4-2,2017-01-26T07:40:00Z,-79.31,54.13,10,14.37,,-0.63,,, NC,, NC
CH4-2,2017-01-26T07:50:00Z,-79.31,54.13,10,14.40,,-0.63,,, NC,, NC
CH4-2,2017-01-26T08:00:00Z,-79.31,54.13,10,14.41,,-0.63,,, NC,, NC
CH4-2,2017-01-26T08:10:00Z,-79.31,54.13,10,14.40,,-0.63,,, NC,, NC
CH4-2,2017-01-26T08:20:00Z,-79.31,54.13,10,14.42,,-0.64,,, NC,, NC
CH4-2,2017-01-26T08:30:00Z,-79.31,54.13,10,14.41,,-0.63,,, NC,, NC
CH4-2,2017-01-26T08:40:00Z,-79.31,54.13,10,14.40,,-0.63,,, NC,, NC
CH4-2,2017-01-26T08:50:00Z,-79.31,54.13,10,14.40,,-0.63,,, NC,, NC
CH4-2,2017-01-26T09:00:00Z,-79.31,54.13,10,14.39,,-0.63,,, NC,, NC
CH4-2,2017-01-26T09:10:00Z,-79.31,54.13,10,14.39,,-0.63,,, NC,, NC
CH4-2,2017-01-26T09:20:00Z,-79.31,54.13,10,14.37,,-0.63,,, NC,, NC
CH4-2,2017-01-26T09:30:00Z,-79.31,54.13,10,14.36,,-0.63,,, NC,, NC
CH4-2,2017-01-26T09:40:00Z,-79.31,54.13,10,14.35,,-0.63,,, NC,, NC
CH4-2,2017-01-26T09:50:00Z,-79.31,54.13,10,14.34,,-0.63,,, NC,, NC
CH4-2,2017-01-26T10:00:00Z,-79.31,54.13,10,14.32,,-0.63,,, NC,, NC
CH4-2,2017-01-26T10:10:00Z,-79.31,54.13,10,14.31,,-0.63,,, NC,, NC
CH4-2,2017-01-26T10:20:00Z,-79.31,54.13,10,14.27,,-0.63,,, NC,, NC
CH4-2,2017-01-26T10:30:00Z,-79.31,54.13,10,14.29,,-0.63,,, NC,, NC
CH4-2,2017-01-26T10:40:00Z,-79.31,54.13,10,14.25,,-0.63,,, NC,, NC
CH4-2,2017-01-26T10:50:00Z,-79.31,54.13,10,14.22,,-0.62,,, NC,, NC
CH4-2,2017-01-26T11:00:00Z,-79.31,54.13,10,14.23,,-0.62,,, NC,, NC
CH4-2,2017-01-26T11:10:00Z,-79.31,54.13,10,14.23,,-0.62,,, NC,, NC
CH4-2,2017-01-26T11:20:00Z,-79.31,54.13,10,14.23,,-0.62,,, NC,, NC
CH4-2,2017-01-26T11:30:00Z,-79.31,54.13,10,14.24,,-0.62,,, NC,, NC
CH4-2,2017-01-26T11:40:00Z,-79.31,54.13,10,14.25,,-0.62,,, NC,, NC
CH4-2,2017-01-26T11:50:00Z,-79.31,54.13,10,14.24,,-0.62,,, NC,, NC
CH4-2,2017-01-26T12:00:00Z,-79.31,54.13,10,14.27,,-0.62,,, NC,, NC
CH4-2,2017-01-26T12:10:00Z,-79.31,54.13,10,14.22,,-0.62,,, NC,, NC
CH4-2,2017-01-26T12:20:00Z,-79.31,54.13,10,14.22,,-0.62,,, NC,, NC
CH4-2,2017-01-26T12:30:00Z,-79.31,54.13,10,14.21,,-0.62,,, NC,, NC
CH4-2,2017-01-26T12:40:00Z,-79.31,54.13,10,14.20,,-0.62,,, NC,, NC
CH4-2,2017-01-26T12:50:00Z,-79.31,54.13,10,14.16,,-0.62,,, NC,, NC
CH4-2,2017-01-26T13:00:00Z,-79.31,54.13,10,14.10,,-0.62,,, NC,, NC
CH4-2,2017-01-26T13:10:00Z,-79.31,54.13,10,14.21,,-0.62,,, NC,, NC
CH4-2,2017-01-26T13:20:00Z,-79.31,54.13,10,14.14,,-0.62,,, NC,, NC
CH4-2,2017-01-26T13:30:00Z,-79.31,54.13,10,14.23,,-0.62,,, NC,, NC
CH4-2,2017-01-26T13:40:00Z,-79.31,54.13,10,14.19,,-0.63,,, NC,, NC
CH4-2,2017-01-26T13:50:00Z,-79.31,54.13,10,14.27,,-0.63,,, NC,, NC
CH4-2,2017-01-26T14:00:00Z,-79.31,54.13,10,14.32,,-0.63,,, NC,, NC
CH4-2,2017-01-26T14:10:00Z,-79.31,54.13,10,14.33,,-0.63,,, NC,, NC
CH4-2,2017-01-26T14:20:00Z,-79.31,54.13,10,14.34,,-0.63,,, NC,, NC
CH4-2,2017-01-26T14:30:00Z,-79.31,54.13,10,14.41,,-0.64,,, NC,, NC
CH4-2,2017-01-26T14:40:00Z,-79.31,54.13,10,14.47,,-0.64,,, NC,, NC
CH4-2,2017-01-26T14:50:00Z,-79.31,54.13,10,14.61,,-0.65,,, NC,, NC
CH4-2,2017-01-26T15:00:00Z,-79.31,54.13,10,14.66,,-0.65,,, NC,, NC
CH4-2,2017-01-26T15:10:00Z,-79.31,54.13,10,14.89,,-0.67,,, NC,, NC
CH4-2,2017-01-26T15:20:00Z,-79.31,54.13,10,14.77,,-0.66,,, NC,, NC
CH4-2,2017-01-26T15:30:00Z,-79.31,54.13,10,14.76,,-0.66,,, NC,, NC
CH4-2,2017-01-26T15:40:00Z,-79.31,54.13,10,14.60,,-0.65,,, NC,, NC
CH4-2,2017-01-26T15:50:00Z,-79.31,54.13,10,14.57,,-0.66,,, NC,, NC
CH4-2,2017-01-26T16:00:00Z,-79.31,54.13,10,14.54,,-0.65,,, NC,, NC
CH4-2,2017-01-26T16:10:00Z,-79.31,54.13,10,14.49,,-0.65,,, NC,, NC
CH4-2,2017-01-26T16:20:00Z,-79.31,54.13,10,14.47,,-0.65,,, NC,, NC
CH4-2,2017-01-26T16:30:00Z,-79.31,54.13,10,14.57,,-0.65,,, NC,, NC
CH4-2,2017-01-26T16:40:00Z,-79.31,54.13,10,14.97,,-0.67,,, NC,, NC
CH4-2,2017-01-26T16:50:00Z,-79.31,54.13,10,14.91,,-0.67,,, NC,, NC
CH4-2,2017-01-26T17:00:00Z,-79.31,54.13,10,14.84,,-0.67,,, NC,, NC
CH4-2,2017-01-26T17:10:00Z,-79.31,54.13,10,14.82,,-0.67,,, NC,, NC
CH4-2,2017-01-26T17:20:00Z,-79.31,54.13,10,14.47,,-0.65,,, NC,, NC
CH4-2,2017-01-26T17:30:00Z,-79.31,54.13,10,14.44,,-0.65,,, NC,, NC
CH4-2,2017-01-26T17:40:00Z,-79.31,54.13,10,14.41,,-0.65,,, NC,, NC
CH4-2,2017-01-26T17:50:00Z,-79.31,54.13,10,14.35,,-0.64,,, NC,, NC
CH4-2,2017-01-26T18:00:00Z,-79.31,54.13,10,14.33,,-0.63,,, NC,, NC
CH4-2,2017-01-26T18:10:00Z,-79.31,54.13,10,14.61,,-0.66,,, NC,, NC
CH4-2,2017-01-26T18:20:00Z,-79.31,54.13,10,14.72,,-0.66,,, NC,, NC
CH4-2,2017-01-26T18:30:00Z,-79.31,54.13,10,14.67,,-0.66,,, NC,, NC
CH4-2,2017-01-26T18:40:00Z,-79.31,54.13,10,14.72,,-0.66,,, NC,, NC
CH4-2,2017-01-26T18:50:00Z,-79.31,54.13,10,14.64,,-0.66,,, NC,, NC
CH4-2,2017-01-26T19:00:00Z,-79.31,54.13,10,14.56,,-0.65,,, NC,, NC
CH4-2,2017-01-26T19:10:00Z,-79.31,54.13,10,14.49,,-0.65,,, NC,, NC
CH4-2,2017-01-26T19:20:00Z,-79.31,54.13,10,14.37,,-0.64,,, NC,, NC
CH4-2,2017-01-26T19:30:00Z,-79.31,54.13,10,14.30,,-0.63,,, NC,, NC
CH4-2,2017-01-26T19:40:00Z,-79.31,54.13,10,14.39,,-0.64,,, NC,, NC
CH4-2,2017-01-26T19:50:00Z,-79.31,54.13,10,14.39,,-0.64,,, NC,, NC
CH4-2,2017-01-26T20:00:00Z,-79.31,54.13,10,14.29,,-0.63,,, NC,, NC
CH4-2,2017-01-26T20:10:00Z,-79.31,54.13,10,14.28,,-0.63,,, NC,, NC
CH4-2,2017-01-26T20:20:00Z,-79.31,54.13,10,14.34,,-0.63,,, NC,, NC
CH4-2,2017-01-26T20:30:00Z,-79.31,54.13,10,14.31,,-0.63,,, NC,, NC
CH4-2,2017-01-26T20:40:00Z,-79.31,54.13,10,14.35,,-0.63,,, NC,, NC
CH4-2,2017-01-26T20:50:00Z,-79.31,54.13,10,14.27,,-0.63,,, NC,, NC
CH4-2,2017-01-26T21:00:00Z,-79.31,54.13,10,14.36,,-0.63,,, NC,, NC
CH4-2,2017-01-26T21:10:00Z,-79.31,54.13,10,14.34,,-0.63,,, NC,, NC
CH4-2,2017-01-26T21:20:00Z,-79.31,54.13,10,14.37,,-0.63,,, NC,, NC
CH4-2,2017-01-26T21:30:00Z,-79.31,54.13,10,14.29,,-0.63,,, NC,, NC
CH4-2,2017-01-26T21:40:00Z,-79.31,54.13,10,14.24,,-0.63,,, NC,, NC
CH4-2,2017-01-26T21:50:00Z,-79.31,54.13,10,14.13,,-0.62,,, NC,, NC
CH4-2,2017-01-26T22:00:00Z,-79.31,54.13,10,14.07,,-0.62,,, NC,, NC
CH4-2,2017-01-26T22:10:00Z,-79.31,54.13,10,14.15,,-0.62,,, NC,, NC
CH4-2,2017-01-26T22:20:00Z,-79.31,54.13,10,14.23,,-0.62,,, NC,, NC
CH4-2,2017-01-26T22:30:00Z,-79.31,54.13,10,14.24,,-0.62,,, NC,, NC
CH4-2,2017-01-26T22:40:00Z,-79.31,54.13,10,14.16,,-0.62,,, NC,, NC
CH4-2,2017-01-26T22:50:00Z,-79.31,54.13,10,14.12,,-0.62,,, NC,, NC
CH4-2,2017-01-26T23:00:00Z,-79.31,54.13,10,14.07,,-0.61,,, NC,, NC
CH4-2,2017-01-26T23:10:00Z,-79.31,54.13,10,14.09,,-0.62,,, NC,, NC
CH4-2,2017-01-26T23:20:00Z,-79.31,54.13,10,14.04,,-0.61,,, NC,, NC
CH4-2,2017-01-26T23:30:00Z,-79.31,54.13,10,14.01,,-0.61,,, NC,, NC
CH4-2,2017-01-26T23:40:00Z,-79.31,54.13,10,14.21,,-0.62,,, NC,, NC
CH4-2,2017-01-26T23:50:00Z,-79.31,54.13,10,14.27,,-0.62,,, NC,, NC
CH4-2,2017-01-27T00:00:00Z,-79.31,54.13,10,14.17,,-0.62,,, NC,, NC
CH4-2,2017-01-27T00:10:00Z,-79.31,54.13,10,14.20,,-0.62,,, NC,, NC
CH4-2,2017-01-27T00:20:00Z,-79.31,54.13,10,14.18,,-0.62,,, NC,, NC
CH4-2,2017-01-27T00:30:00Z,-79.31,54.13,10,14.20,,-0.62,,, NC,, NC
CH4-2,2017-01-27T00:40:00Z,-79.31,54.13,10,14.18,,-0.62,,, NC,, NC
CH4-2,2017-01-27T00:50:00Z,-79.31,54.13,10,14.17,,-0.62,,, NC,, NC
CH4-2,2017-01-27T01:00:00Z,-79.31,54.13,10,14.17,,-0.62,,, NC,, NC
CH4-2,2017-01-27T01:10:00Z,-79.31,54.13,10,14.06,,-0.62,,, NC,, NC
CH4-2,2017-01-27T01:20:00Z,-79.31,54.13,10,14.06,,-0.62,,, NC,, NC
CH4-2,2017-01-27T01:30:00Z,-79.31,54.13,10,14.10,,-0.62,,, NC,, NC
CH4-2,2017-01-27T01:40:00Z,-79.31,54.13,10,14.15,,-0.62,,, NC,, NC
CH4-2,2017-01-27T01:50:00Z,-79.31,54.13,10,14.36,,-0.63,,, NC,, NC
CH4-2,2017-01-27T02:00:00Z,-79.31,54.13,10,14.21,,-0.63,,, NC,, NC
CH4-2,2017-01-27T02:10:00Z,-79.31,54.13,10,14.25,,-0.63,,, NC,, NC
CH4-2,2017-01-27T02:20:00Z,-79.31,54.13,10,14.22,,-0.63,,, NC,, NC
CH4-2,2017-01-27T02:30:00Z,-79.31,54.13,10,14.34,,-0.64,,, NC,, NC
CH4-2,2017-01-27T02:40:00Z,-79.31,54.13,10,15.13,,-0.67,,, NC,, NC
CH4-2,2017-01-27T02:50:00Z,-79.31,54.13,10,15.12,,-0.67,,, NC,, NC
CH4-2,2017-01-27T03:00:00Z,-79.31,54.13,10,15.14,,-0.68,,, NC,, NC
CH4-2,2017-01-27T03:10:00Z,-79.31,54.13,10,15.24,,-0.68,,, NC,, NC
CH4-2,2017-01-27T03:20:00Z,-79.31,54.13,10,15.07,,-0.67,,, NC,, NC
CH4-2,2017-01-27T03:30:00Z,-79.31,54.13,10,15.19,,-0.68,,, NC,, NC
CH4-2,2017-01-27T03:40:00Z,-79.31,54.13,10,14.97,,-0.67,,, NC,, NC
CH4-2,2017-01-27T03:50:00Z,-79.31,54.13,10,14.84,,-0.67,,, NC,, NC
CH4-2,2017-01-27T04:00:00Z,-79.31,54.13,10,14.52,,-0.65,,, NC,, NC
CH4-2,2017-01-27T04:10:00Z,-79.31,54.13,10,14.48,,-0.64,,, NC,, NC
CH4-2,2017-01-27T04:20:00Z,-79.31,54.13,10,14.46,,-0.64,,, NC,, NC
CH4-2,2017-01-27T04:30:00Z,-79.31,54.13,10,14.55,,-0.65,,, NC,, NC
CH4-2,2017-01-27T04:40:00Z,-79.31,54.13,10,15.18,,-0.68,,, NC,, NC
CH4-2,2017-01-27T04:50:00Z,-79.31,54.13,10,15.09,,-0.68,,, NC,, NC
CH4-2,2017-01-27T05:00:00Z,-79.31,54.13,10,15.10,,-0.68,,, NC,, NC
CH4-2,2017-01-27T05:10:00Z,-79.31,54.13,10,15.55,,-0.70,,, NC,, NC
CH4-2,2017-01-27T05:20:00Z,-79.31,54.13,10,15.41,,-0.70,,, NC,, NC
CH4-2,2017-01-27T05:30:00Z,-79.31,54.13,10,14.89,,-0.67,,, NC,, NC
CH4-2,2017-01-27T05:40:00Z,-79.31,54.13,10,14.72,,-0.66,,, NC,, NC
CH4-2,2017-01-27T05:50:00Z,-79.31,54.13,10,14.64,,-0.66,,, NC,, NC
CH4-2,2017-01-27T06:00:00Z,-79.31,54.13,10,14.57,,-0.66,,, NC,, NC
CH4-2,2017-01-27T06:10:00Z,-79.31,54.13,10,14.59,,-0.66,,, NC,, NC
CH4-2,2017-01-27T06:20:00Z,-79.31,54.13,10,14.65,,-0.66,,, NC,, NC
CH4-2,2017-01-27T06:30:00Z,-79.31,54.13,10,14.62,,-0.66,,, NC,, NC
CH4-2,2017-01-27T06:40:00Z,-79.31,54.13,10,14.60,,-0.66,,, NC,, NC
CH4-2,2017-01-27T06:50:00Z,-79.31,54.13,10,14.64,,-0.66,,, NC,, NC
CH4-2,2017-01-27T07:00:00Z,-79.31,54.13,10,14.71,,-0.66,,, NC,, NC
CH4-2,2017-01-27T07:10:00Z,-79.31,54.13,10,14.87,,-0.67,,, NC,, NC
CH4-2,2017-01-27T07:20:00Z,-79.31,54.13,10,14.97,,-0.68,,, NC,, NC
CH4-2,2017-01-27T07:30:00Z,-79.31,54.13,10,14.75,,-0.67,,, NC,, NC
CH4-2,2017-01-27T07:40:00Z,-79.31,54.13,10,14.68,,-0.66,,, NC,, NC
CH4-2,2017-01-27T07:50:00Z,-79.31,54.13,10,14.66,,-0.66,,, NC,, NC
CH4-2,2017-01-27T08:00:00Z,-79.31,54.13,10,14.41,,-0.64,,, NC,, NC
CH4-2,2017-01-27T08:10:00Z,-79.31,54.13,10,14.44,,-0.64,,, NC,, NC
CH4-2,2017-01-27T08:20:00Z,-79.31,54.13,10,14.54,,-0.65,,, NC,, NC
CH4-2,2017-01-27T08:30:00Z,-79.31,54.13,10,14.57,,-0.65,,, NC,, NC
CH4-2,2017-01-27T08:40:00Z,-79.31,54.13,10,14.36,,-0.63,,, NC,, NC
CH4-2,2017-01-27T08:50:00Z,-79.31,54.13,10,14.48,,-0.64,,, NC,, NC
CH4-2,2017-01-27T09:00:00Z,-79.31,54.13,10,14.38,,-0.63,,, NC,, NC
CH4-2,2017-01-27T09:10:00Z,-79.31,54.13,10,14.43,,-0.63,,, NC,, NC
CH4-2,2017-01-27T09:20:00Z,-79.31,54.13,10,14.61,,-0.65,,, NC,, NC
CH4-2,2017-01-27T09:30:00Z,-79.31,54.13,10,14.74,,-0.65,,, NC,, NC
CH4-2,2017-01-27T09:40:00Z,-79.31,54.13,10,14.31,,-0.63,,, NC,, NC
CH4-2,2017-01-27T09:50:00Z,-79.31,54.13,10,14.22,,-0.62,,, NC,, NC
CH4-2,2017-01-27T10:00:00Z,-79.31,54.13,10,14.23,,-0.62,,, NC,, NC
CH4-2,2017-01-27T10:10:00Z,-79.31,54.13,10,14.19,,-0.62,,, NC,, NC
CH4-2,2017-01-27T10:20:00Z,-79.31,54.13,10,14.27,,-0.63,,, NC,, NC
CH4-2,2017-01-27T10:30:00Z,-79.31,54.13,10,14.44,,-0.63,,, NC,, NC
CH4-2,2017-01-27T10:40:00Z,-79.31,54.13,10,14.65,,-0.64,,, NC,, NC
CH4-2,2017-01-27T10:50:00Z,-79.31,54.13,10,14.59,,-0.64,,, NC,, NC
CH4-2,2017-01-27T11:00:00Z,-79.31,54.13,10,14.82,,-0.65,,, NC,, NC
CH4-2,2017-01-27T11:10:00Z,-79.31,54.13,10,14.73,,-0.65,,, NC,, NC
CH4-2,2017-01-27T11:20:00Z,-79.31,54.13,10,14.67,,-0.64,,, NC,, NC
CH4-2,2017-01-27T11:30:00Z,-79.31,54.13,10,14.37,,-0.63,,, NC,, NC
CH4-2,2017-01-27T11:40:00Z,-79.31,54.13,10,14.35,,-0.63,,, NC,, NC
CH4-2,2017-01-27T11:50:00Z,-79.31,54.13,10,14.26,,-0.63,,, NC,, NC
CH4-2,2017-01-27T12:00:00Z,-79.31,54.13,10,14.87,,-0.66,,, NC,, NC
CH4-2,2017-01-27T12:10:00Z,-79.31,54.13,10,14.69,,-0.65,,, NC,, NC
CH4-2,2017-01-27T12:20:00Z,-79.31,54.13,10,14.55,,-0.64,,, NC,, NC
CH4-2,2017-01-27T12:30:00Z,-79.31,54.13,10,14.41,,-0.63,,, NC,, NC
CH4-2,2017-01-27T12:40:00Z,-79.31,54.13,10,14.41,,-0.63,,, NC,, NC
CH4-2,2017-01-27T12:50:00Z,-79.31,54.13,10,14.38,,-0.63,,, NC,, NC
CH4-2,2017-01-27T13:00:00Z,-79.31,54.13,10,14.53,,-0.64,,, NC,, NC
CH4-2,2017-01-27T13:10:00Z,-79.31,54.13,10,14.48,,-0.64,,, NC,, NC
CH4-2,2017-01-27T13:20:00Z,-79.31,54.13,10,14.89,,-0.65,,, NC,, NC
CH4-2,2017-01-27T13:30:00Z,-79.31,54.13,10,14.91,,-0.66,,, NC,, NC
CH4-2,2017-01-27T13:40:00Z,-79.31,54.13,10,14.87,,-0.66,,, NC,, NC
CH4-2,2017-01-27T13:50:00Z,-79.31,54.13,10,14.99,,-0.67,,, NC,, NC
CH4-2,2017-01-27T14:00:00Z,-79.31,54.13,10,15.09,,-0.67,,, NC,, NC
CH4-2,2017-01-27T14:10:00Z,-79.31,54.13,10,14.98,,-0.67,,, NC,, NC
CH4-2,2017-01-27T14:20:00Z,-79.31,54.13,10,14.96,,-0.67,,, NC,, NC
CH4-2,2017-01-27T14:30:00Z,-79.31,54.13,10,14.94,,-0.67,,, NC,, NC
CH4-2,2017-01-27T14:40:00Z,-79.31,54.13,10,15.07,,-0.68,,, NC,, NC
CH4-2,2017-01-27T14:50:00Z,-79.31,54.13,10,15.25,,-0.68,,, NC,, NC
CH4-2,2017-01-27T15:00:00Z,-79.31,54.13,10,14.96,,-0.66,,, NC,, NC
CH4-2,2017-01-27T15:10:00Z,-79.31,54.13,10,16.48,,-0.74,,, NC,, NC
CH4-2,2017-01-27T15:20:00Z,-79.31,54.13,10,15.96,,-0.72,,, NC,, NC
CH4-2,2017-01-27T15:30:00Z,-79.31,54.13,10,16.76,,-0.75,,, NC,, NC
CH4-2,2017-01-27T15:40:00Z,-79.31,54.13,10,15.36,,-0.69,,, NC,, NC
CH4-2,2017-01-27T15:50:00Z,-79.31,54.13,10,14.84,,-0.67,,, NC,, NC
CH4-2,2017-01-27T16:00:00Z,-79.31,54.13,10,15.01,,-0.68,,, NC,, NC
CH4-2,2017-01-27T16:10:00Z,-79.31,54.13,10,15.13,,-0.68,,, NC,, NC
CH4-2,2017-01-27T16:20:00Z,-79.31,54.13,10,15.14,,-0.68,,, NC,, NC
CH4-2,2017-01-27T16:30:00Z,-79.31,54.13,10,15.36,,-0.69,,, NC,, NC
CH4-2,2017-01-27T16:40:00Z,-79.31,54.13,10,15.36,,-0.69,,, NC,, NC
CH4-2,2017-01-27T16:50:00Z,-79.31,54.13,10,15.58,,-0.70,,, NC,, NC
CH4-2,2017-01-27T17:00:00Z,-79.31,54.13,10,15.19,,-0.68,,, NC,, NC
CH4-2,2017-01-27T17:10:00Z,-79.31,54.13,10,15.21,,-0.69,,, NC,, NC
CH4-2,2017-01-27T17:20:00Z,-79.31,54.13,10,15.12,,-0.68,,, NC,, NC
CH4-2,2017-01-27T17:30:00Z,-79.31,54.13,10,15.42,,-0.69,,, NC,, NC
CH4-2,2017-01-27T17:40:00Z,-79.31,54.13,10,15.14,,-0.68,,, NC,, NC
CH4-2,2017-01-27T17:50:00Z,-79.31,54.13,10,15.19,,-0.68,,, NC,, NC
CH4-2,2017-01-27T18:00:00Z,-79.31,54.13,10,15.14,,-0.68,,, NC,, NC
CH4-2,2017-01-27T18:10:00Z,-79.31,54.13,10,14.99,,-0.68,,, NC,, NC
CH4-2,2017-01-27T18:20:00Z,-79.31,54.13,10,14.84,,-0.67,,, NC,, NC
CH4-2,2017-01-27T18:30:00Z,-79.31,54.13,10,14.80,,-0.67,,, NC,, NC
CH4-2,2017-01-27T18:40:00Z,-79.31,54.13,10,14.73,,-0.67,,, NC,, NC
CH4-2,2017-01-27T18:50:00Z,-79.31,54.13,10,14.64,,-0.66,,, NC,, NC
CH4-2,2017-01-27T19:00:00Z,-79.31,54.13,10,14.77,,-0.67,,, NC,, NC
CH4-2,2017-01-27T19:10:00Z,-79.31,54.13,10,14.82,,-0.67,,, NC,, NC
CH4-2,2017-01-27T19:20:00Z,-79.31,54.13,10,14.83,,-0.67,,, NC,, NC
CH4-2,2017-01-27T19:30:00Z,-79.31,54.13,10,14.85,,-0.67,,, NC,, NC
CH4-2,2017-01-27T19:40:00Z,-79.31,54.13,10,15.00,,-0.68,,, NC,, NC
CH4-2,2017-01-27T19:50:00Z,-79.31,54.13,10,14.81,,-0.67,,, NC,, NC
CH4-2,2017-01-27T20:00:00Z,-79.31,54.13,10,15.29,,-0.69,,, NC,, NC
CH4-2,2017-01-27T20:10:00Z,-79.31,54.13,10,15.03,,-0.68,,, NC,, NC
CH4-2,2017-01-27T20:20:00Z,-79.31,54.13,10,15.03,,-0.68,,, NC,, NC
CH4-2,2017-01-27T20:30:00Z,-79.31,54.13,10,15.24,,-0.68,,, NC,, NC
CH4-2,2017-01-27T20:40:00Z,-79.31,54.13,10,15.52,,-0.70,,, NC,, NC
CH4-2,2017-01-27T20:50:00Z,-79.31,54.13,10,14.82,,-0.67,,, NC,, NC
CH4-2,2017-01-27T21:00:00Z,-79.31,54.13,10,14.78,,-0.65,,, NC,, NC
CH4-2,2017-01-27T21:10:00Z,-79.31,54.13,10,15.07,,-0.67,,, NC,, NC
CH4-2,2017-01-27T21:20:00Z,-79.31,54.13,10,14.56,,-0.64,,, NC,, NC
CH4-2,2017-01-27T21:30:00Z,-79.31,54.13,10,14.62,,-0.64,,, NC,, NC
CH4-2,2017-01-27T21:40:00Z,-79.31,54.13,10,14.80,,-0.66,,, NC,, NC
CH4-2,2017-01-27T21:50:00Z,-79.31,54.13,10,14.65,,-0.65,,, NC,, NC
CH4-2,2017-01-27T22:00:00Z,-79.31,54.13,10,14.63,,-0.65,,, NC,, NC
CH4-2,2017-01-27T22:10:00Z,-79.31,54.13,10,14.62,,-0.65,,, NC,, NC
CH4-2,2017-01-27T22:20:00Z,-79.31,54.13,10,14.98,,-0.66,,, NC,, NC
CH4-2,2017-01-27T22:30:00Z,-79.31,54.13,10,15.32,,-0.68,,, NC,, NC
CH4-2,2017-01-27T22:40:00Z,-79.31,54.13,10,15.45,,-0.68,,, NC,, NC
CH4-2,2017-01-27T22:50:00Z,-79.31,54.13,10,15.21,,-0.67,,, NC,, NC
CH4-2,2017-01-27T23:00:00Z,-79.31,54.13,10,14.78,,-0.65,,, NC,, NC
CH4-2,2017-01-27T23:10:00Z,-79.31,54.13,10,14.61,,-0.65,,, NC,, NC
CH4-2,2017-01-27T23:20:00Z,-79.31,54.13,10,14.53,,-0.64,,, NC,, NC
CH4-2,2017-01-27T23:30:00Z,-79.31,54.13,10,14.50,,-0.64,,, NC,, NC
CH4-2,2017-01-27T23:40:00Z,-79.31,54.13,10,14.55,,-0.64,,, NC,, NC
CH4-2,2017-01-27T23:50:00Z,-79.31,54.13,10,15.65,,-0.69,,, NC,, NC
CH4-2,2017-01-28T00:00:00Z,-79.31,54.13,10,15.64,,-0.69,,, NC,, NC
CH4-2,2017-01-28T00:10:00Z,-79.31,54.13,10,15.43,,-0.68,,, NC,, NC
CH4-2,2017-01-28T00:20:00Z,-79.31,54.13,10,15.28,,-0.68,,, NC,, NC
CH4-2,2017-01-28T00:30:00Z,-79.31,54.13,10,15.08,,-0.67,,, NC,, NC
CH4-2,2017-01-28T00:40:00Z,-79.31,54.13,10,15.00,,-0.66,,, NC,, NC
CH4-2,2017-01-28T00:50:00Z,-79.31,54.13,10,15.07,,-0.66,,, NC,, NC
CH4-2,2017-01-28T01:00:00Z,-79.31,54.13,10,14.95,,-0.66,,, NC,, NC
CH4-2,2017-01-28T01:10:00Z,-79.31,54.13,10,15.46,,-0.68,,, NC,, NC
CH4-2,2017-01-28T01:20:00Z,-79.31,54.13,10,15.69,,-0.70,,, NC,, NC
CH4-2,2017-01-28T01:30:00Z,-79.31,54.13,10,16.16,,-0.71,,, NC,, NC
CH4-2,2017-01-28T01:40:00Z,-79.31,54.13,10,16.33,,-0.73,,, NC,, NC
CH4-2,2017-01-28T01:50:00Z,-79.31,54.13,10,16.00,,-0.72,,, NC,, NC
CH4-2,2017-01-28T02:00:00Z,-79.31,54.13,10,15.87,,-0.71,,, NC,, NC
CH4-2,2017-01-28T02:10:00Z,-79.31,54.13,10,16.17,,-0.71,,, NC,, NC
CH4-2,2017-01-28T02:20:00Z,-79.31,54.13,10,16.00,,-0.71,,, NC,, NC
CH4-2,2017-01-28T02:30:00Z,-79.31,54.13,10,16.50,,-0.73,,, NC,, NC
CH4-2,2017-01-28T02:40:00Z,-79.31,54.13,10,17.03,,-0.75,,, NC,, NC
CH4-2,2017-01-28T02:50:00Z,-79.31,54.13,10,17.10,,-0.76,,, NC,, NC
CH4-2,2017-01-28T03:00:00Z,-79.31,54.13,10,17.00,,-0.76,,, NC,, NC
CH4-2,2017-01-28T03:10:00Z,-79.31,54.13,10,17.35,,-0.77,,, NC,, NC
CH4-2,2017-01-28T03:20:00Z,-79.31,54.13,10,17.48,,-0.78,,, NC,, NC
CH4-2,2017-01-28T03:30:00Z,-79.31,54.13,10,16.52,,-0.74,,, NC,, NC
CH4-2,2017-01-28T03:40:00Z,-79.31,54.13,10,16.61,,-0.75,,, NC,, NC
CH4-2,2017-01-28T03:50:00Z,-79.31,54.13,10,16.45,,-0.74,,, NC,, NC
CH4-2,2017-01-28T04:00:00Z,-79.31,54.13,10,16.30,,-0.73,,, NC,, NC
CH4-2,2017-01-28T04:10:00Z,-79.31,54.13,10,15.80,,-0.71,,, NC,, NC
CH4-2,2017-01-28T04:20:00Z,-79.31,54.13,10,15.82,,-0.71,,, NC,, NC
CH4-2,2017-01-28T04:30:00Z,-79.31,54.13,10,15.74,,-0.71,,, NC,, NC
CH4-2,2017-01-28T04:40:00Z,-79.31,54.13,10,15.68,,-0.71,,, NC,, NC
CH4-2,2017-01-28T04:50:00Z,-79.31,54.13,10,16.17,,-0.73,,, NC,, NC
CH4-2,2017-01-28T05:00:00Z,-79.31,54.13,10,16.19,,-0.73,,, NC,, NC
CH4-2,2017-01-28T05:10:00Z,-79.31,54.13,10,16.30,,-0.73,,, NC,, NC
CH4-2,2017-01-28T05:20:00Z,-79.31,54.13,10,16.11,,-0.73,,, NC,, NC
CH4-2,2017-01-28T05:30:00Z,-79.31,54.13,10,16.44,,-0.74,,, NC,, NC
CH4-2,2017-01-28T05:40:00Z,-79.31,54.13,10,16.33,,-0.74,,, NC,, NC
CH4-2,2017-01-28T05:50:00Z,-79.31,54.13,10,16.47,,-0.75,,, NC,, NC
CH4-2,2017-01-28T06:00:00Z,-79.31,54.13,10,16.54,,-0.75,,, NC,, NC
CH4-2,2017-01-28T06:10:00Z,-79.31,54.13,10,16.36,,-0.74,,, NC,, NC
CH4-2,2017-01-28T06:20:00Z,-79.31,54.13,10,16.20,,-0.74,,, NC,, NC
CH4-2,2017-01-28T06:30:00Z,-79.31,54.13,10,16.28,,-0.74,,, NC,, NC
CH4-2,2017-01-28T06:40:00Z,-79.31,54.13,10,16.42,,-0.74,,, NC,, NC
CH4-2,2017-01-28T06:50:00Z,-79.31,54.13,10,16.33,,-0.74,,, NC,, NC
CH4-2,2017-01-28T07:00:00Z,-79.31,54.13,10,16.20,,-0.74,,, NC,, NC
CH4-2,2017-01-28T07:10:00Z,-79.31,54.13,10,15.94,,-0.72,,, NC,, NC
CH4-2,2017-01-28T07:20:00Z,-79.31,54.13,10,15.97,,-0.72,,, NC,, NC
CH4-2,2017-01-28T07:30:00Z,-79.31,54.13,10,15.85,,-0.72,,, NC,, NC
CH4-2,2017-01-28T07:40:00Z,-79.31,54.13,10,15.59,,-0.70,,, NC,, NC
CH4-2,2017-01-28T07:50:00Z,-79.31,54.13,10,15.30,,-0.69,,, NC,, NC
CH4-2,2017-01-28T08:00:00Z,-79.31,54.13,10,15.31,,-0.69,,, NC,, NC
CH4-2,2017-01-28T08:10:00Z,-79.31,54.13,10,15.45,,-0.69,,, NC,, NC
CH4-2,2017-01-28T08:20:00Z,-79.31,54.13,10,15.31,,-0.68,,, NC,, NC
CH4-2,2017-01-28T08:30:00Z,-79.31,54.13,10,15.42,,-0.69,,, NC,, NC
CH4-2,2017-01-28T08:40:00Z,-79.31,54.13,10,15.65,,-0.70,,, NC,, NC
CH4-2,2017-01-28T08:50:00Z,-79.31,54.13,10,15.58,,-0.68,,, NC,, NC
CH4-2,2017-01-28T09:00:00Z,-79.31,54.13,10,15.85,,-0.70,,, NC,, NC
CH4-2,2017-01-28T09:10:00Z,-79.31,54.13,10,15.02,,-0.66,,, NC,, NC
CH4-2,2017-01-28T09:20:00Z,-79.31,54.13,10,14.87,,-0.65,,, NC,, NC
CH4-2,2017-01-28T09:30:00Z,-79.31,54.13,10,15.33,,-0.67,,, NC,, NC
CH4-2,2017-01-28T09:40:00Z,-79.31,54.13,10,15.89,,-0.70,,, NC,, NC
CH4-2,2017-01-28T09:50:00Z,-79.31,54.13,10,15.44,,-0.68,,, NC,, NC
CH4-2,2017-01-28T10:00:00Z,-79.31,54.13,10,15.63,,-0.69,,, NC,, NC
CH4-2,2017-01-28T10:10:00Z,-79.31,54.13,10,15.47,,-0.68,,, NC,, NC
CH4-2,2017-01-28T10:20:00Z,-79.31,54.13,10,15.32,,-0.68,,, NC,, NC
CH4-2,2017-01-28T10:30:00Z,-79.31,54.13,10,15.40,,-0.67,,, NC,, NC
CH4-2,2017-01-28T10:40:00Z,-79.31,54.13,10,15.30,,-0.68,,, NC,, NC
CH4-2,2017-01-28T10:50:00Z,-79.31,54.13,10,15.46,,-0.68,,, NC,, NC
CH4-2,2017-01-28T11:00:00Z,-79.31,54.13,10,15.98,,-0.70,,, NC,, NC
CH4-2,2017-01-28T11:10:00Z,-79.31,54.13,10,15.42,,-0.68,,, NC,, NC
CH4-2,2017-01-28T11:20:00Z,-79.31,54.13,10,15.23,,-0.68,,, NC,, NC
CH4-2,2017-01-28T11:30:00Z,-79.31,54.13,10,15.36,,-0.68,,, NC,, NC
CH4-2,2017-01-28T11:40:00Z,-79.31,54.13,10,15.33,,-0.67,,, NC,, NC
CH4-2,2017-01-28T11:50:00Z,-79.31,54.13,10,16.98,,-0.75,,, NC,, NC
CH4-2,2017-01-28T12:00:00Z,-79.31,54.13,10,16.76,,-0.74,,, NC,, NC
CH4-2,2017-01-28T12:10:00Z,-79.31,54.13,10,16.37,,-0.73,,, NC,, NC
CH4-2,2017-01-28T12:20:00Z,-79.31,54.13,10,16.34,,-0.72,,, NC,, NC
CH4-2,2017-01-28T12:30:00Z,-79.31,54.13,10,16.12,,-0.71,,, NC,, NC
CH4-2,2017-01-28T12:40:00Z,-79.31,54.13,10,16.24,,-0.72,,, NC,, NC
CH4-2,2017-01-28T12:50:00Z,-79.31,54.13,10,16.15,,-0.72,,, NC,, NC
CH4-2,2017-01-28T13:00:00Z,-79.31,54.13,10,16.22,,-0.72,,, NC,, NC
CH4-2,2017-01-28T13:10:00Z,-79.31,54.13,10,16.48,,-0.73,,, NC,, NC
CH4-2,2017-01-28T13:20:00Z,-79.31,54.13,10,16.53,,-0.73,,, NC,, NC
CH4-2,2017-01-28T13:30:00Z,-79.31,54.13,10,16.44,,-0.73,,, NC,, NC
CH4-2,2017-01-28T13:40:00Z,-79.31,54.13,10,16.77,,-0.75,,, NC,, NC
CH4-2,2017-01-28T13:50:00Z,-79.31,54.13,10,16.71,,-0.75,,, NC,, NC
CH4-2,2017-01-28T14:00:00Z,-79.31,54.13,10,16.90,,-0.76,,, NC,, NC
CH4-2,2017-01-28T14:10:00Z,-79.31,54.13,10,16.77,,-0.75,,, NC,, NC
CH4-2,2017-01-28T14:20:00Z,-79.31,54.13,10,16.25,,-0.73,,, NC,, NC